Powrót do katalogu

COSMOS 2251 DEB

AktywnyLEO
NORAD 36441·DEBRIS·🇷🇺 Russia

Wystrzelony Jun 16, 1993 z Plesetsk Cosmodrome

Loading…

Następne Przeloty (najbliższe 24 godziny)

TLE

Starzejące sięSource: Space-Track

Epoka: Sep 11, 2026, 01:00 UTC

1 36441U 93036BAQ 26254.04170287  .00004920  00000-0  26298-3 0  9992
2 36441  73.8344 141.3205 0102800 184.1568 175.8783 15.10880745910737

Śledź COSMOS 2251 DEB w czasie rzeczywistym z AllMySat

Download on the App Store